カタログに戻る

COSMOS 2251 DEB

運用中LEO
NORAD 34431·DEBRIS·🇷🇺 Russia

打ち上げ Jun 16, 1993 から Plesetsk Cosmodrome

Loading…

次のパス (今後24時間)

TLE

最新Source: Space-Track

元期: Sep 14, 2026, 08:31 UTC

1 34431U 93036RY  26257.35541901  .00000735  00000-0  29071-3 0  9993
2 34431  74.0756  35.9502 0067955 312.5111  47.0309 14.29507394910801

AllMySatでCOSMOS 2251 DEBをリアルタイム追跡

Download on the App Store